Location: Ellerstadt
(49.4644°N, 8.2615°E)
Time: 20:44:28
(UTC+00:00)

Vanguard 1 - Pass Details

Date: 16 June 2021
Orbit: 651 x 3832 km, 34.2° (Epoch: 27 July)

Event Time Altitude Azimuth Distance (km) Brightness Sun altitude
Rises 01:14:29 0° 263° (W) 7,176 14.2 -13.4°
Reaches altitude 10° 01:20:26 10° 257° (WSW) 5,677 13.6 -13.0°
Maximum altitude 01:33:25 34° 201° (SSW) 2,834 11.9 -12.0°
Drops below altitude 10° 01:41:13 10° 139° (SE) 3,389 12.6 -11.4°
Sets 01:43:49 0° 130° (SE) 4,046 13.1 -11.1°
